This is the latest recevied weather packets stored in our database for station/object SV4JYD-14. If no packets are shown the sender has not sent any weather packets the latest 10 day(s).
| Time | Temp. | Humidity | Pressure | Rain* | Wind** | Luminosity | Snow |
|---|---|---|---|---|---|---|---|
| 1777369886 | 19.44° C | 43% | 1017 hPa | 0 mm | - | - | - |
| 1777368985 | 18.89° C | 46% | 1017 hPa | 0 mm | - | - | - |
| 1777368085 | 18.33° C | 49% | 1018 hPa | 0 mm | - | - | - |
| 1777367185 | 18.33° C | 51% | 1017 hPa | 0 mm | - | - | - |
| 1777366285 | 18.89° C | 49% | 1017 hPa | 0 mm | - | - | - |
| 1777365384 | 18.89° C | 48% | 1017 hPa | 0 mm | - | - | - |
| 1777364484 | 18.33° C | 49% | 1018 hPa | 0 mm | - | - | - |
| 1777363584 | 17.78° C | 50% | 1018 hPa | 0 mm | - | - | - |
| 1777362684 | 17.22° C | 52% | 1017 hPa | 0 mm | - | - | - |
| 1777361783 | 17.22° C | 53% | 1017 hPa | 0 mm | - | - | - |
| 1777360883 | 17.22° C | 54% | 1018 hPa | 0 mm | - | - | - |
| 1777359983 | 16.67° C | 55% | 1017 hPa | 0 mm | - | - | - |
| 1777359083 | 16.11° C | 56% | 1017 hPa | 0 mm | - | - | - |
| 1777358182 | 16.11° C | 57% | 1017 hPa | 0 mm | - | - | - |
| 1777357282 | 15.56° C | 59% | 1018 hPa | 0 mm | - | - | - |
| 1777356381 | 15.56° C | 59% | 1018 hPa | 0 mm | - | - | - |
| 1777355481 | 15° C | 60% | 1017 hPa | 0 mm | - | - | - |
| 1777354579 | 14.44° C | 61% | 1017 hPa | 0 mm | - | - | - |
| 1777353679 | 14.44° C | 64% | 1018 hPa | 0 mm | - | - | - |
| 1777352779 | 13.89° C | 67% | 1018 hPa | 0 mm | - | - | - |
| 1777351879 | 13.89° C | 71% | 1017 hPa | 0 mm | - | - | - |
| 1777350979 | 13.33° C | 72% | 1017 hPa | 0 mm | - | - | - |
| 1777350078 | 12.78° C | 68% | 1017 hPa | 0 mm | - | - | - |
| 1777349178 | 12.22° C | 66% | 1017 hPa | 0 mm | - | - | - |
| 1777348278 | 12.22° C | 67% | 1017 hPa | 0 mm | - | - | - |
* Rain latest hour (hover to see other rain measurements)
** Current wind speed in m/s (hover to see current wind gust speed)